Лансинг

США     42°46′59″N   84°31′55″W
темп.,
°C
ветер,
м/с
пор.,
м/с
влажн.,
%
обл.,
%
осадки,
мм/ч
давл.,
гПа
погр.,
м
21 октября, чт
чт2123:00+13ююз4877100 0.2 1014148
02:00+14ю51278100 0.3 1011327
05:00+13ююз6138935 4.4 1009416
08:00+13ююз5139379 4.8 1008392
11:00+17зюз6107412 0.1 10071151
14:00+14зюз7972100 0.2 10071236
17:00+13зюз6107799 0.1 1007906
20:00+10ссз61086100 0.3 1011687
22 октября, пт
пт2223:00+8ссз696985 0.0 1014692
02:00+4сз4873100 0.0 1016373
05:00+3сз3881100 0.0 1016235
08:00+3сз2381100 0.0 101783
11:00+8ссз355742 0.0 10181117
14:00+10сз2450100 0.0 10161520
17:00+10з2355100 0.0 10151209
20:00+9ююв1161100 0.0 101526
23 октября, сб
сб2323:00+7ю247081 0.0 101598
02:00+6з358464 0.1 1015116
05:00+4з35805 0.0 101598
08:00+3зсз35896 0.0 101699
11:00+9зсз46505 0.0 10171382
14:00+12зсз464228 0.0 10161928
17:00+12зсз354364 0.0 10151763
20:00+6св22795 0.0 101721
24 октября, вс
вс2423:00+4ссв12825 0.0 101714
02:00+4ссз11845 0.0 101711
05:00+3ссз228878 0.0 101812
08:00+2св1286100 0.0 101813
11:00+7всв3464100 0.0 1018333
14:00+10всв4553100 0.0 1016751
17:00+9всв4760100 0.0 1016627
20:00+8всв51071100 0.3 1017671
25 октября, пн
пн2523:00+7всв71476100 0.0 1016722
02:00+7в61274100 0.3 1016719
05:00+5в81587100 3.1 1015633
08:00+4в71691100 8.6 1013641
11:00+4св71492100 5.4 1015639
14:00+5всв81692100 6.1 1014706
17:00+6всв71489100 0.1 1015675
20:00+6всв51292100 0.6 1017654